Regional Weather Roundup
Issued by NWS

Home | Current Version | Previous Version | Text Only | Print | Product List | Glossary On
Versions: 1 2 3 4 5 6 7 8 9 10 11 12 13 14 15 16 17 18 19 20 21 22 23 24 25 26 27 28 29 30 31 32 33 34 35 36 37 38 39 40 41 42 43 44 45 46 47 48 49 50
000
ASUS43 KTOP 170659
RWRKS

WEATHER ROUNDUP FOR KANSAS
NATIONAL WEATHER SERVICE GOODLAND KS
200 AM CDT THU APR 17 2014

NOTE:  "FAIR" INDICATES FEW OR NO CLOUDS BELOW 12,000 FEET WITH NO
SIGNIFICANT WEATHER AND/OR OBSTRUCTIONS TO VISIBILITY.

KSZ001>006-013>018-027>032-041>047-170800-
NORTHWEST KANSAS

CITY           SKY/WX    TMP DP  RH WIND       PRES   REMARKS
GOODLAND       CLOUDY    38  33  82 E12       30.16R WCI  30
HAYS           CLOUDY    39  27  60 N18       30.18R WCI  30
HILL CITY      CLOUDY    37  28  70 N10       30.21R WCI  30
RUSSELL        CLOUDY    38  28  67 N18       30.16R WCI  28
$$

KSZ061>065-074>080-084>089-170800-
SOUTHWEST KANSAS

CITY           SKY/WX    TMP DP  RH WIND       PRES   REMARKS
DODGE CITY     CLOUDY    46  33  60 E12       30.13R
ELKHART          N/A     47  31  54 NE10        N/A
GARDEN CITY    CLOUDY    47  35  63 NE13      30.10R
GREAT BEND     CLOUDY    43  28  56 NE15      30.16R
LIBERAL        MOCLDY    48  30  49 E13       30.13R
$$

KSZ066>073-081>083-090>101-170800-
SOUTHEAST KANSAS

CITY           SKY/WX    TMP DP  RH WIND       PRES   REMARKS
CHANUTE        CLEAR     47  37  68 NW7       30.11R
HUTCHINSON     MOCLDY    43  30  60 N12       30.15R
NEWTON         MOCLDY    39  27  60 N14G20    30.16R WCI  31
PARSONS        CLEAR     44  33  65 CALM      30.12R
WICHITA INTL   CLOUDY    47  33  58 N16       30.13R
WICHITA JABRA  CLOUDY    44  33  65 N10       30.13R
WINFIELD       MOCLDY    49  37  63 N8        30.12R
$$

KSZ007>012-019>026-033>040-048>060-102>105-170800-
NORTHEAST KANSAS

CITY           SKY/WX    TMP DP  RH WIND       PRES   REMARKS
CONCORDIA      CLOUDY    36  27  69 N17G23    30.17R WCI  26
EMPORIA        PTCLDY    40  31  70 N12       30.13R WCI  33
LAWRENCE       MOCLDY    41  32  70 NW9       30.14R
MANHATTAN      MOCLDY    39  29  67 CALM      30.18R
OLATHE IND     CLEAR     40  32  73 NW10      30.12R WCI  33
OLATHE EXE     CLEAR     41  31  67 N12       30.10R
SALINA         MOCLDY    41  28  60 N15       30.19R
TOPEKA BILLARD CLOUDY    41  30  65 N9        30.15R
TOPEKA FORBES  CLOUDY    41  30  65 N10       30.14R
$$



USA.gov is the U.S. government's official web portal to all federal, state and local government web resources and services.